This is the latest recevied weather packets stored in our database for station/object SR3WXA. If no packets are shown the sender has not sent any weather packets the latest 10 day(s).
| Time | Temp. | Humidity | Pressure | Rain* | Wind** | Luminosity | Snow |
|---|---|---|---|---|---|---|---|
| 1777735582 | 25° C | 31% | 1020.2 hPa | 0 mm | - | 360 W/m² | - |
| 1777735550 | 25° C | 31% | 1020.2 hPa | 0 mm | - | 360 W/m² | - |
| 1777735250 | 25° C | 31% | 1020.3 hPa | 0 mm | - | 373 W/m² | - |
| 1777734713 | 25° C | 31% | 1020.4 hPa | 0 mm | - | 394 W/m² | - |
| 1777734461 | 25° C | 33% | 1020.6 hPa | 0 mm | - | 404 W/m² | - |
| 1777734413 | 25° C | 33% | 1020.6 hPa | 0 mm | - | 404 W/m² | - |
| 1777734113 | 24.44° C | 34% | 1020.5 hPa | 0 mm | - | 413 W/m² | - |
| 1777733813 | 24.44° C | 34% | 1020.7 hPa | 0 mm | - | 422 W/m² | - |
| 1777733513 | 25° C | 34% | 1020.7 hPa | 0 mm | - | 436 W/m² | - |
| 1777733213 | 24.44° C | 34% | 1020.8 hPa | 0 mm | - | 441 W/m² | - |
| 1777732954 | 25° C | 34% | 1020.8 hPa | 0 mm | - | 439 W/m² | - |
| 1777732913 | 25° C | 34% | 1020.8 hPa | 0 mm | - | 439 W/m² | - |
| 1777732613 | 24.44° C | 34% | 1020.9 hPa | 0 mm | - | 434 W/m² | - |
| 1777732363 | 24.44° C | 34% | 1021 hPa | 0 mm | - | 422 W/m² | - |
| 1777732313 | 24.44° C | 34% | 1021 hPa | 0 mm | - | 422 W/m² | - |
| 1777732045 | 24.44° C | 35% | 1021.1 hPa | 0 mm | - | 404 W/m² | - |
| 1777732013 | 24.44° C | 35% | 1021.1 hPa | 0 mm | - | 404 W/m² | - |
| 1777731744 | 24.44° C | 35% | 1021 hPa | 0 mm | - | 387 W/m² | - |
| 1777731713 | 24.44° C | 35% | 1021 hPa | 0 mm | - | 387 W/m² | - |
| 1777731487 | 24.44° C | 36% | 1021.1 hPa | 0 mm | - | 378 W/m² | - |
| 1777731413 | 24.44° C | 36% | 1021.1 hPa | 0 mm | - | 378 W/m² | - |
| 1777731144 | 24.44° C | 36% | 1021.3 hPa | 0 mm | - | 374 W/m² | - |
| 1777731113 | 24.44° C | 36% | 1021.3 hPa | 0 mm | - | 374 W/m² | - |
| 1777730844 | 24.44° C | 35% | 1021.3 hPa | 0 mm | - | 387 W/m² | - |
| 1777730813 | 24.44° C | 35% | 1021.3 hPa | 0 mm | - | 387 W/m² | - |
* Rain latest hour (hover to see other rain measurements)
** Current wind speed in m/s (hover to see current wind gust speed)